GEFSCGP_500_meanwind_096.txt.gz
Wind_Speed
48 50 51 49 49 50 50 49 49 49 48 45 44 42 40 39 37 34 31 29 27 25 23 21 19 18 18 18 18 18 18 18 18 18 19 19 20 20 21 21 22 23 24 25
50 50 48 47 49 50 51 51 50 51 48 46 45 44 43 41 38 35 33 31 28 26 24 22 21 20 20 21 21 21 22 22 22 23 23 23 24 24 25 26 27 28 29 29
50 48 48 49 51 51 51 51 51 51 47 46 47 47 45 42 40 38 35 32 30 28 26 24 23 23 23 23 24 25 25 25 26 26 27 27 27 28 29 30 31 32 33 34
50 50 49 50 50 50 50 50 49 49 47 47 49 49 46 44 42 39 36 34 31 29 27 26 25 25 25 26 27 27 28 28 29 29 30 30 31 32 33 34 35 36 37 38
52 52 50 50 49 48 49 48 47 47 47 49 51 50 48 47 44 40 37 35 33 31 29 28 27 27 28 28 29 29 30 30 31 31 32 33 33 34 35 36 37 38 39 40
50 51 50 48 48 48 49 48 47 47 49 52 51 52 51 48 44 40 38 36 35 33 32 31 30 30 30 30 31 31 32 32 33 33 34 34 35 36 37 38 39 40 41 42
52 51 50 48 49 50 50 50 49 50 52 54 52 54 53 48 43 40 39 38 37 36 35 33 33 32 32 32 32 33 33 34 34 35 35 36 37 37 38 39 40 41 42 43
52 52 51 50 50 50 50 50 51 51 53 53 52 53 50 46 42 41 40 40 39 38 37 36 35 35 34 34 34 34 35 35 36 36 37 37 38 39 40 41 42 43 44 46
51 50 50 50 49 49 50 50 49 49 51 51 52 52 49 46 43 41 40 40 40 39 38 38 37 36 36 36 36 36 36 36 37 37 38 39 40 41 42 43 44 46 47 48
51 51 50 49 49 49 49 48 49 50 50 50 51 51 49 45 42 41 40 40 40 39 39 38 38 37 37 37 37 37 37 38 38 39 40 41 42 43 44 45 47 48 49 51
53 53 51 50 50 49 49 50 50 49 49 49 50 50 47 43 40 39 39 39 39 39 38 38 38 38 38 38 38 38 39 39 40 41 42 42 44 45 46 47 49 50 51 53
55 54 53 51 50 49 49 48 48 48 49 48 48 48 45 43 41 39 38 38 38 38 38 38 38 38 38 38 39 39 40 41 42 42 43 45 46 47 48 49 51 52 53 54
55 56 55 54 53 52 52 50 49 48 48 49 49 49 46 44 42 40 39 38 38 38 38 39 39 39 39 40 41 41 42 43 44 45 46 47 48 49 51 52 53 54 55 56
54 56 56 56 54 53 53 52 50 50 52 52 51 48 46 44 42 41 40 40 40 41 41 41 41 41 42 43 43 44 45 46 47 48 49 50 51 53 54 54 55 56 56 58
54 55 55 54 53 54 54 53 51 51 50 50 48 48 46 46 46 45 45 44 44 44 44 44 44 45 46 47 48 49 50 50 51 52 53 54 55 55 56 56 57 58 59 60
54 55 56 56 55 56 58 57 56 55 54 53 52 51 50 51 51 50 48 47 47 47 48 48 49 50 51 51 52 53 54 55 56 56 57 57 58 58 58 59 60 60 61 61
53 53 55 56 56 57 61 59 58 58 57 56 57 54 53 54 54 54 53 52 52 52 52 53 54 54 55 55 56 56 57 57 58 58 59 59 59 60 60 61 61 61 62 62
53 53 54 56 57 60 59 56 57 58 58 57 58 57 58 58 57 57 57 56 56 56 56 56 56 56 57 57 58 58 59 59 59 59 59 60 60 60 61 61 62 62 63 63
53 53 54 56 59 61 59 58 58 58 59 57 57 57 58 59 60 60 59 59 58 58 58 58 58 58 58 59 59 59 59 60 59 59 59 60 60 61 61 62 62 63 64 65
55 55 56 57 58 60 56 55 55 57 60 56 57 57 58 59 61 58 57 59 59 59 59 59 59 59 59 59 59 59 59 59 59 59 59 59 60 60 61 62 63 64 65 67
55 57 57 58 59 57 54 53 54 57 55 53 54 55 57 59 59 58 59 59 60 60 60 60 59 59 58 58 57 57 57 57 58 58 58 59 60 61 62 64 65 67 69 71
54 55 55 56 57 55 53 54 55 54 53 53 53 54 55 57 58 59 59 60 60 59 59 58 58 57 57 56 56 56 56 57 57 58 59 61 62 63 65 67 69 71 73 75
54 54 54 54 53 52 52 53 54 54 54 54 54 54 54 54 55 56 56 57 56 56 55 55 54 55 55 55 55 56 57 58 59 60 62 63 65 66 68 70 72 74 76 78
53 52 52 52 52 51 52 52 53 53 53 52 53 53 53 53 52 53 53 53 53 53 53 54 54 54 55 55 56 57 58 59 61 63 64 66 68 70 71 73 75 77 78 80
54 53 53 53 52 52 53 53 54 54 54 53 53 53 53 52 52 51 51 52 52 53 54 55 55 56 57 57 58 60 61 63 64 66 67 69 70 72 74 75 76 78 80 81
56 55 54 53 52 53 54 55 55 56 56 56 56 56 55 55 54 54 54 54 55 56 56 57 58 59 59 60 62 63 64 65 67 68 70 71 72 74 75 76 77 79 80 81

GEFSCGP_500_meanwind_102.txt.gz
Wind_Speed
50 50 49 46 45 44 47 49 50 51 51 50 49 48 47 46 44 42 39 37 34 33 32 29 28 26 24 23 21 20 19 19 18 17 18 17 17 18 18 19 20 21 21 22
51 49 46 46 45 47 48 50 51 51 52 52 51 51 50 49 46 43 41 39 37 36 33 31 30 28 26 25 24 23 22 21 21 21 20 20 20 21 22 23 24 25 25 26
48 46 47 49 48 49 50 50 50 52 52 53 53 54 54 52 49 47 45 42 40 38 35 33 32 30 29 27 26 25 25 24 24 24 23 23 24 25 26 27 27 28 29 30
49 48 47 48 49 49 49 48 50 52 54 55 56 56 55 54 52 50 47 44 42 39 38 36 34 32 31 30 29 28 27 27 27 26 26 27 27 28 29 29 30 31 32 33
50 49 48 49 48 49 47 47 50 52 54 56 57 58 56 56 54 51 48 45 43 41 40 38 36 35 34 32 31 30 30 29 29 29 29 29 30 30 31 32 33 33 34 35
50 50 49 47 47 48 47 48 50 51 54 58 58 59 58 56 54 51 49 47 44 43 42 40 38 37 36 35 33 32 31 31 31 31 31 31 32 33 33 34 35 35 36 37
53 51 50 50 51 51 51 52 53 55 58 60 58 60 59 56 54 51 49 48 46 45 43 42 40 39 38 37 35 35 34 33 33 33 33 34 34 35 35 36 36 37 38 39
53 53 52 52 52 53 53 54 57 59 60 59 58 60 59 56 53 51 49 48 47 45 44 43 42 41 40 39 38 37 36 35 35 35 35 35 36 36 37 38 38 39 40 41
53 51 51 52 51 53 53 53 52 53 56 56 57 58 58 55 52 49 48 47 46 46 45 45 44 43 42 41 40 39 38 37 37 37 37 37 38 38 39 40 41 41 42 43
51 51 51 51 51 53 52 51 52 55 56 56 57 58 57 53 50 48 47 46 46 46 46 46 45 44 43 43 42 41 40 40 40 40 39 40 40 40 41 42 43 43 44 45
51 51 50 51 52 53 54 54 55 54 56 56 57 57 54 51 48 46 45 45 46 46 47 47 47 46 45 44 43 43 42 42 41 41 41 41 42 43 43 44 45 45 46 47
52 52 51 51 50 51 52 53 54 55 57 57 57 55 51 48 45 44 44 44 45 45 46 46 47 46 46 45 44 44 43 43 43 43 43 43 44 44 45 45 46 46 47 48
53 53 53 53 53 52 53 53 54 53 53 54 55 53 49 45 42 41 41 42 43 44 45 45 45 45 45 45 44 44 44 43 43 43 44 44 45 45 46 46 46 47 49 50
52 53 54 53 51 50 52 53 54 54 55 55 55 52 48 44 42 40 39 39 40 42 43 44 44 44 44 44 44 44 44 44 44 44 44 45 45 46 46 47 49 50 52 53
52 52 52 51 50 48 47 48 49 51 52 53 51 50 45 42 41 41 41 41 41 42 42 43 43 44 44 44 44 44 44 44 45 45 46 46 47 48 49 51 52 54 56 57
52 52 51 51 51 50 49 48 48 48 48 50 50 49 45 44 44 44 44 44 43 43 43 44 45 45 45 45 46 46 46 47 47 48 48 49 50 52 54 55 57 58 59 60
50 51 51 52 52 52 53 50 49 50 50 50 50 47 45 46 45 45 45 45 45 45 45 46 46 47 47 47 48 48 49 50 50 51 52 53 55 57 58 59 59 60 61 61
48 49 49 50 52 55 52 49 49 49 49 49 49 48 48 48 48 49 49 48 48 48 48 48 48 48 49 50 50 51 52 53 54 55 56 57 58 59 60 60 61 61 62 62
48 48 49 50 51 53 51 50 49 50 51 49 49 49 49 51 53 52 51 51 50 50 50 50 50 51 52 52 53 54 55 56 57 58 58 59 60 61 61 61 62 62 62 63
49 49 51 52 53 54 49 48 48 51 52 47 49 50 51 53 54 51 51 52 52 53 53 54 54 54 55 55 56 57 58 59 59 59 60 61 61 61 61 62 62 62 62 62
50 51 52 52 53 51 49 49 50 51 46 45 49 51 53 55 54 53 54 55 56 56 56 57 57 57 58 58 58 59 59 59 59 60 60 60 60 61 61 61 61 61 60 61
49 50 51 51 51 49 48 49 49 47 47 48 48 50 53 54 55 56 56 57 57 58 58 59 59 59 59 59 59 59 59 59 59 60 60 60 60 60 60 60 59 59 60 61
50 50 50 50 48 46 47 47 46 46 48 49 49 50 51 53 54 55 56 57 57 58 58 59 59 59 59 59 59 59 59 59 59 59 58 58 58 58 58 58 58 59 61 63
49 49 50 50 49 50 50 49 49 49 49 49 50 51 51 52 53 54 55 56 56 56 56 56 56 57 57 57 56 56 56 56 56 56 56 55 56 56 57 58 60 62 64 66
50 49 50 50 50 51 51 52 51 51 50 50 50 51 51 51 52 53 54 55 55 55 55 55 54 54 54 54 54 54 54 54 54 54 54 55 56 57 58 60 62 64 66 68
51 51 51 51 51 52 52 53 53 52 52 52 52 51 51 51 51 51 52 52 53 53 53 53 53 53 53 53 53 53 53 53 54 54 55 56 57 59 61 63 65 67 69 71

GEFSCGP_500_meanwind_108.txt.gz
Wind_Speed
56 56 54 51 49 49 47 46 44 43 44 44 44 43 43 45 44 44 43 41 39 37 37 36 34 33 31 29 27 26 25 24 22 22 21 21 20 19 18 18 18 19 20 20
56 55 51 50 50 49 49 47 46 45 47 46 46 46 46 47 47 46 45 44 42 41 41 38 36 34 32 31 30 28 27 26 25 25 24 23 22 21 21 21 22 22 23 23
52 51 51 52 51 50 50 48 47 46 47 49 49 50 49 49 49 49 47 46 46 44 42 41 39 37 35 33 32 31 30 29 28 27 26 25 24 24 24 25 25 25 25 26
53 51 50 51 50 49 49 47 47 48 49 51 51 52 51 50 51 51 50 48 47 46 44 43 41 39 37 35 35 34 33 32 31 30 28 27 27 27 28 28 28 28 28 29
55 52 51 50 48 48 47 46 46 48 50 52 53 53 52 52 52 52 51 49 48 46 45 44 42 40 39 39 38 37 36 34 33 32 31 30 30 30 31 31 31 31 31 32
55 53 52 50 48 48 47 47 47 48 51 54 53 55 54 52 52 51 51 51 49 48 47 46 44 43 42 41 40 39 38 37 36 35 34 33 33 34 33 33 33 34 34 34
57 56 53 52 52 52 50 50 50 51 53 55 53 57 55 50 52 52 51 51 50 49 48 48 47 45 44 43 42 41 40 39 39 38 37 36 36 36 36 36 36 36 36 37
57 57 54 54 54 53 52 52 53 53 54 53 55 56 52 50 50 51 51 51 51 50 49 49 48 47 46 45 44 43 42 42 41 41 40 39 39 39 38 38 39 39 39 40
56 54 53 54 53 52 52 53 51 52 53 53 54 52 52 51 49 49 50 51 51 50 50 49 49 49 48 47 46 45 45 44 44 43 42 42 42 41 41 41 41 41 42 42
55 56 54 54 54 54 52 51 52 53 54 54 54 52 51 49 48 48 47 48 49 50 50 50 49 49 49 48 48 47 47 46 45 45 45 44 44 44 43 43 44 44 44 45
56 57 56 55 55 53 53 54 55 54 55 54 54 51 49 49 47 46 46 47 48 48 48 49 49 49 49 49 49 48 48 47 47 47 46 46 46 46 46 46 46 47 47 48
57 57 56 54 52 51 52 52 53 54 54 54 54 51 49 48 46 45 44 44 46 46 47 48 49 49 49 49 49 49 49 49 48 48 48 48 48 48 48 48 48 49 49 50
56 57 57 57 55 53 53 53 53 52 52 53 53 50 48 48 46 43 42 42 43 45 46 47 48 49 49 49 49 49 49 50 50 50 50 49 49 49 49 50 50 51 51 51
54 56 56 55 53 51 52 52 53 53 55 54 52 49 48 45 44 43 41 40 41 42 44 46 47 47 48 48 49 49 49 49 50 50 50 50 50 50 51 51 51 51 51 51
53 54 54 52 52 50 48 48 49 50 51 51 49 49 47 44 42 41 40 40 40 40 42 43 45 47 47 48 48 49 49 49 50 50 50 50 50 51 51 51 51 51 51 51
52 52 52 52 52 51 51 49 48 48 48 49 49 49 46 46 45 44 42 41 41 41 41 43 44 46 47 48 48 48 48 49 49 50 50 50 50 50 50 50 50 51 51 52
50 51 51 52 53 53 54 51 50 49 48 47 48 45 46 47 45 44 44 44 43 43 43 44 45 45 46 48 48 48 48 48 48 49 49 49 50 50 50 51 51 52 52 53
47 48 49 50 51 54 49 47 49 49 48 46 46 45 46 46 45 45 46 46 46 46 46 46 46 46 47 48 49 50 50 49 49 50 50 50 50 51 51 52 53 54 55 56
47 48 49 51 52 51 48 46 46 48 48 46 46 45 46 46 48 47 46 46 46 47 48 48 48 49 49 49 49 50 50 50 50 51 51 52 52 53 54 55 56 57 58 60
48 49 49 50 51 50 44 44 45 47 47 42 44 45 46 48 49 45 43 45 47 48 48 49 49 50 50 50 51 51 51 51 51 52 53 54 55 56 56 57 58 59 61 62
49 51 52 51 50 47 43 43 44 46 41 39 42 44 46 48 47 44 44 46 47 48 49 49 49 49 50 51 52 52 52 52 53 54 54 55 56 57 59 60 60 61 62 63
47 48 50 50 51 47 44 45 44 41 41 42 41 42 44 46 46 46 47 47 48 49 49 49 49 50 50 51 52 53 53 54 55 56 57 57 58 59 60 61 62 63 64 64
47 47 47 47 46 43 43 42 41 41 43 43 43 42 43 44 45 46 47 48 48 49 49 50 51 51 52 53 53 54 55 56 57 58 58 59 60 61 61 62 63 63 64 65
45 45 46 46 46 46 44 43 43 42 43 44 44 44 44 44 45 46 47 48 48 48 49 50 51 51 52 53 54 55 56 57 58 59 59 60 60 61 61 62 63 63 63 64
43 43 44 45 45 46 46 45 45 45 45 45 45 45 45 46 46 46 47 48 49 50 50 51 52 53 54 55 55 56 57 58 59 59 59 60 60 60 61 61 61 62 62 62
44 44 44 45 44 45 45 45 46 46 47 47 47 47 47 47 47 48 48 49 50 50 51 51 52 52 53 54 55 56 56 57 57 58 58 58 59 59 59 59 60 60 60 61

GEFSCGP_500_meanwind_114.txt.gz
Wind_Speed
66 66 65 62 59 56 55 52 50 48 47 47 46 44 40 40 40 39 39 39 39 38 39 39 37 36 34 32 31 30 29 28 27 26 25 25 25 24 23 22 21 21 21 20
67 67 63 59 58 56 55 53 51 50 49 49 49 47 44 43 42 40 41 41 41 42 42 41 40 38 36 34 33 33 32 31 30 29 29 29 28 26 24 24 23 24 24 24
65 63 62 60 58 55 54 53 52 50 49 49 49 50 48 45 44 43 42 42 43 44 44 43 42 41 39 37 35 35 35 34 34 33 33 31 29 28 27 27 28 27 27 26
61 60 59 58 57 54 54 52 51 50 50 50 51 52 49 47 46 45 44 44 44 45 46 45 44 43 41 39 39 39 38 38 37 37 35 33 32 31 31 32 31 30 29 29
61 59 58 58 55 53 53 52 51 50 51 52 52 54 51 48 47 45 44 43 44 46 47 47 45 44 43 43 43 42 41 41 40 39 37 36 35 34 35 34 33 33 32 32
59 57 56 55 54 54 53 52 52 52 53 55 53 55 54 48 46 44 42 43 43 46 47 48 48 47 46 46 45 44 43 43 42 41 40 39 38 38 38 37 36 36 35 35
60 59 57 57 57 57 56 55 54 55 57 57 55 56 54 46 43 43 43 42 43 46 47 49 49 49 48 48 47 46 46 45 44 44 43 42 41 41 41 40 39 39 38 38
60 59 57 57 58 57 57 57 58 57 57 56 55 55 51 47 44 43 44 44 44 46 48 49 49 50 50 50 49 48 47 47 46 46 45 45 44 44 43 43 42 42 41 41
58 57 57 58 57 57 58 58 56 56 56 55 56 53 50 47 45 44 44 45 46 46 48 49 50 50 51 51 51 50 49 49 49 48 48 48 47 47 46 46 46 45 44 44
59 59 57 58 59 59 58 56 56 56 55 56 56 52 48 46 45 44 44 45 45 46 48 48 49 50 51 51 51 51 51 51 50 50 50 49 49 49 49 48 48 47 47 47
59 59 58 59 59 57 58 59 58 57 57 56 55 51 47 47 46 44 44 44 44 45 46 46 47 49 50 51 52 52 52 52 52 52 51 51 51 51 51 50 50 50 50 50
60 60 59 58 56 56 56 56 56 57 57 57 55 49 46 46 45 44 44 44 44 44 45 46 47 48 49 50 51 51 52 53 53 53 53 52 52 52 53 52 52 52 52 52
58 59 60 61 60 59 58 57 56 55 55 55 55 48 45 45 45 44 43 43 42 42 43 45 47 48 49 50 50 51 51 53 53 54 54 54 53 53 53 54 54 54 54 54
56 58 59 59 56 55 55 55 55 56 56 56 54 48 46 44 44 44 43 43 43 43 43 44 46 47 49 49 50 50 51 52 53 54 54 54 54 54 54 55 55 55 55 55
55 56 56 55 55 53 51 51 51 52 52 52 50 48 44 44 43 44 44 44 44 43 43 44 44 46 48 50 50 51 51 51 52 53 54 54 55 55 55 55 55 55 55 55
52 52 53 53 54 54 54 52 50 49 49 50 50 49 44 46 46 46 45 45 45 44 44 44 44 46 47 49 50 50 50 51 52 53 54 54 54 55 55 55 55 55 55 55
51 51 51 51 52 53 55 52 51 50 50 50 50 44 44 47 47 46 45 46 46 46 45 45 45 46 47 48 49 50 51 51 52 52 53 54 54 54 55 55 55 54 55 55
46 47 47 49 50 54 49 47 48 49 48 47 48 46 46 46 46 46 46 46 46 47 47 46 46 46 48 48 48 49 50 51 51 51 52 52 53 54 54 54 55 55 55 55
45 45 46 48 49 50 47 46 45 47 47 46 47 47 47 47 49 47 45 45 45 45 46 46 46 46 47 48 49 50 50 51 51 52 52 53 53 54 55 55 55 55 55 55
45 46 47 48 49 49 44 44 44 45 47 44 46 46 47 48 49 45 42 44 45 46 46 46 46 46 46 47 48 50 51 51 51 52 53 53 53 53 54 54 54 54 55 56
47 47 47 47 47 45 44 44 45 46 42 40 42 43 45 46 46 44 44 45 46 46 46 46 46 46 47 47 48 48 49 50 51 51 51 52 52 53 53 54 54 54 55 55
46 47 46 46 47 45 44 45 45 41 40 41 40 40 42 43 44 44 45 45 44 45 46 46 46 46 47 48 48 48 49 50 51 51 51 51 51 52 52 53 54 54 54 55
46 45 45 44 42 41 41 41 39 39 39 40 40 40 40 41 42 43 44 44 44 44 45 46 46 46 47 48 48 49 50 51 51 52 53 53 53 53 53 54 54 55 55 56
45 45 44 44 44 42 40 39 39 39 39 40 41 41 40 41 42 43 43 43 43 43 43 44 45 46 47 47 48 49 50 51 52 52 53 53 54 54 54 55 56 56 57 58
43 42 42 43 42 42 42 42 41 40 41 42 42 43 42 42 42 43 43 43 43 43 43 43 44 45 46 47 47 48 49 50 51 52 53 54 54 55 55 56 57 58 59 60
45 44 43 43 42 42 42 42 42 42 43 44 44 45 45 44 44 44 44 44 44 44 44 44 44 45 46 47 48 48 49 50 51 53 54 54 55 56 57 58 58 59 60 60